Time,TemperatureF,DewpointF,PressureIn,WindDirection,WindDirectionDegrees,WindSpeedMPH,WindSpeedGustMPH,Humidity,HourlyPrecipIn,Conditions,Clouds,dailyrainin,SolarRadiationWatts/m^2,SoftwareType,DateUTC
2013-12-07 00:02:00,-12.7,-17.6,30.76,NW,315,0.0,5.0,78,0.00,-DZ BR,OVC VV000 1/4SM,0.00,0.0,WUHU216DAVISVP2,2013-12-07 06:02:00,
2013-12-07 00:07:00,-12.7,-17.6,30.76,WNW,303,0.0,4.0,78,0.00,-DZ BR,OVC VV000 1/4SM,0.00,0.0,WUHU216DAVISVP2,2013-12-07 06:07:00,
2013-12-07 00:12:00,-12.7,-17.6,30.75,WSW,257,3.0,4.0,78,0.00,-DZ BR,OVC VV000 1/4SM,0.00,0.0,WUHU216DAVISVP2,2013-12-07 06:12:00,
2013-12-07 00:17:00,-12.7,-17.6,30.76,West,276,0.0,3.0,78,0.00,-DZ BR,OVC VV000 1/4SM,0.00,0.0,WUHU216DAVISVP2,2013-12-07 06:17:00,
2013-12-07 00:22:00,-12.7,-17.6,30.76,NNW,331,1.0,2.0,78,0.00,-DZ BR,OVC VV000 1/4SM,0.00,0.0,WUHU216DAVISVP2,2013-12-07 06:22:00,
2013-12-07 00:27:00,-12.7,-17.6,30.76,WNW,295,0.0,5.0,78,0.00,-DZ BR,OVC VV000 1/4SM,0.00,0.0,WUHU216DAVISVP2,2013-12-07 06:27:00,
2013-12-07 00:32:00,-12.7,-17.6,30.75,WNW,292,0.0,5.0,78,0.00,-DZ BR,OVC VV000 1/4SM,0.00,0.0,WUHU216DAVISVP2,2013-12-07 06:32:00,
2013-12-07 00:37:00,-12.8,-17.7,30.76,West,278,0.0,4.0,78,0.00,-DZ BR,OVC VV000 1/4SM,0.00,0.0,WUHU216DAVISVP2,2013-12-07 06:37:00,
2013-12-07 00:42:00,-12.9,-17.8,30.75,West,261,0.0,4.0,78,0.00,-DZ BR,OVC VV000 1/4SM,0.00,0.0,WUHU216DAVISVP2,2013-12-07 06:42:00,
2013-12-07 00:47:00,-13.1,-18.0,30.75,WSW,254,0.0,2.0,78,0.00,-DZ BR,OVC VV000 1/4SM,0.00,0.0,WUHU216DAVISVP2,2013-12-07 06:47:00,
2013-12-07 00:52:00,-13.1,-17.7,30.75,West,279,0.0,2.0,79,0.00,-DZ BR,OVC VV000 1/4SM,0.00,0.0,WUHU216DAVISVP2,2013-12-07 06:52:00,
2013-12-07 00:57:00,-12.9,-17.5,30.75,West,275,0.0,2.0,79,0.00,-DZ BR,OVC VV000 1/4SM,0.00,0.0,WUHU216DAVISVP2,2013-12-07 06:57:00,
2013-12-07 01:02:00,-13.0,-17.9,30.75,West,279,0.0,0.0,78,0.00,-DZ BR,OVC VV000 1/4SM,0.00,0.0,WUHU216DAVISVP2,2013-12-07 07:02:00,
2013-12-07 01:07:00,-13.0,-17.7,30.75,WNW,300,0.0,1.0,79,0.00,-DZ BR,OVC VV000 1/4SM,0.00,0.0,WUHU216DAVISVP2,2013-12-07 07:07:00,
2013-12-07 01:12:00,-13.1,-17.7,30.75,NW,305,0.0,2.0,79,0.00,-DZ BR,OVC VV000 1/4SM,0.00,0.0,WUHU216DAVISVP2,2013-12-07 07:12:00,
2013-12-07 01:17:00,-13.1,-17.7,30.75,West,278,0.0,2.0,79,0.00,-DZ BR,OVC VV000 1/4SM,0.00,0.0,WUHU216DAVISVP2,2013-12-07 07:17:00,
2013-12-07 01:22:00,-13.1,-17.8,30.75,WNW,293,0.0,2.0,79,0.00,-DZ BR,OVC VV000 1/4SM,0.00,0.0,WUHU216DAVISVP2,2013-12-07 07:22:00,
2013-12-07 01:27:00,-13.2,-18.1,30.75,West,262,0.0,0.0,78,0.00,-DZ BR,OVC VV000 1/4SM,0.00,0.0,WUHU216DAVISVP2,2013-12-07 07:27:00,
2013-12-07 01:32:00,-13.4,-18.3,30.75,WNW,290,0.0,0.0,78,0.00,-DZ BR,OVC VV000 1/4SM,0.00,0.0,WUHU216DAVISVP2,2013-12-07 07:32:00,
2013-12-07 01:37:00,-13.5,-18.4,30.76,West,279,0.0,0.0,78,0.00,-DZ BR,OVC VV000 1/4SM,0.00,0.0,WUHU216DAVISVP2,2013-12-07 07:37:00,
2013-12-07 01:42:00,-13.7,-18.6,30.76,WNW,302,0.0,1.0,78,0.00,-DZ BR,OVC VV000 1/4SM,0.00,0.0,WUHU216DAVISVP2,2013-12-07 07:42:00,
2013-12-07 01:47:00,-13.9,-18.8,30.75,NW,313,1.0,1.0,78,0.00,-DZ BR,OVC VV000 1/4SM,0.00,0.0,WUHU216DAVISVP2,2013-12-07 07:47:00,
2013-12-07 01:52:00,-14.0,-18.8,30.75,NW,311,1.0,3.0,78,0.00,-DZ BR,OVC VV000 1/4SM,0.00,0.0,WUHU216DAVISVP2,2013-12-07 07:52:00,
2013-12-07 01:57:00,-13.9,-18.5,30.76,NNW,328,0.0,4.0,79,0.00,-DZ BR,OVC VV000 1/4SM,0.00,0.0,WUHU216DAVISVP2,2013-12-07 07:57:00,
2013-12-07 02:02:00,-13.8,-18.7,30.76,NW,306,1.0,4.0,78,0.00,-DZ BR,OVC VV000 1/4SM,0.00,0.0,WUHU216DAVISVP2,2013-12-07 08:02:00,
2013-12-07 02:07:00,-13.7,-18.3,30.76,WNW,286,0.0,5.0,79,0.00,-DZ BR,OVC VV000 1/4SM,0.00,0.0,WUHU216DAVISVP2,2013-12-07 08:07:00,
2013-12-07 02:12:00,-13.6,-18.2,30.76,WNW,283,0.0,5.0,79,0.00,-DZ BR,OVC VV000 1/4SM,0.00,0.0,WUHU216DAVISVP2,2013-12-07 08:12:00,
2013-12-07 02:17:00,-13.5,-18.1,30.76,WNW,296,0.0,5.0,79,0.00,-DZ BR,OVC VV000 1/4SM,0.00,0.0,WUHU216DAVISVP2,2013-12-07 08:17:00,
2013-12-07 02:22:00,-13.5,-18.1,30.77,WNW,290,0.0,5.0,79,0.00,-DZ BR,OVC VV000 1/4SM,0.00,0.0,WUHU216DAVISVP2,2013-12-07 08:22:00,
2013-12-07 02:27:00,-13.5,-18.4,30.76,NNW,333,1.0,4.0,78,0.00,-DZ BR,OVC VV000 1/4SM,0.00,0.0,WUHU216DAVISVP2,2013-12-07 08:27:00,
2013-12-07 02:32:00,-13.4,-18.0,30.77,NW,307,0.0,6.0,79,0.00,-DZ BR,OVC VV000 1/4SM,0.00,0.0,WUHU216DAVISVP2,2013-12-07 08:32:00,
2013-12-07 02:37:00,-13.4,-18.0,30.77,West,268,0.0,6.0,79,0.00,-DZ BR,OVC VV000 1/4SM,0.00,0.0,WUHU216DAVISVP2,2013-12-07 08:37:00,
2013-12-07 02:42:00,-13.4,-18.3,30.77,WNW,300,0.0,2.0,78,0.00,-DZ BR,OVC VV000 1/4SM,0.00,0.0,WUHU216DAVISVP2,2013-12-07 08:42:00,
2013-12-07 02:47:00,-13.5,-18.4,30.77,West,275,0.0,3.0,78,0.00,-DZ BR,OVC VV000 1/4SM,0.00,0.0,WUHU216DAVISVP2,2013-12-07 08:47:00,
2013-12-07 02:53:00,-13.6,-18.5,30.77,West,275,0.0,3.0,78,0.00,-DZ BR,OVC VV000 1/4SM,0.00,0.0,WUHU216DAVISVP2,2013-12-07 08:53:00,
2013-12-07 02:58:00,-13.7,-18.6,30.77,NW,304,0.0,1.0,78,0.00,-DZ BR,OVC VV000 1/4SM,0.00,0.0,WUHU216DAVISVP2,2013-12-07 08:58:00,
2013-12-07 03:03:00,-13.8,-18.7,30.77,NW,315,0.0,1.0,78,0.00,-DZ BR,OVC VV000 1/4SM,0.00,0.0,WUHU216DAVISVP2,2013-12-07 09:03:00,
2013-12-07 03:08:00,-13.9,-18.8,30.77,WNW,300,0.0,1.0,78,0.00,-DZ BR,OVC VV000 1/4SM,0.00,0.0,WUHU216DAVISVP2,2013-12-07 09:08:00,
2013-12-07 03:13:00,-14.0,-18.8,30.77,WNW,291,0.0,5.0,78,0.00,-DZ BR,OVC VV000 1/4SM,0.00,0.0,WUHU216DAVISVP2,2013-12-07 09:13:00,
2013-12-07 03:18:00,-14.0,-18.8,30.77,WNW,288,1.0,5.0,78,0.00,-DZ BR,OVC VV000 1/4SM,0.00,0.0,WUHU216DAVISVP2,2013-12-07 09:18:00,
2013-12-07 03:23:00,-14.0,-18.8,30.78,NW,325,0.0,1.0,78,0.00,-DZ BR,OVC VV000 1/4SM,0.00,0.0,WUHU216DAVISVP2,2013-12-07 09:23:00,
2013-12-07 03:28:00,-14.0,-18.8,30.78,WNW,287,0.0,2.0,78,0.00,-DZ BR,OVC VV000 1/4SM,0.00,0.0,WUHU216DAVISVP2,2013-12-07 09:28:00,
2013-12-07 03:33:00,-14.2,-19.0,30.77,WNW,291,0.0,2.0,78,0.00,-DZ BR,OVC VV000 1/4SM,0.00,0.0,WUHU216DAVISVP2,2013-12-07 09:33:00,
2013-12-07 03:38:00,-14.3,-19.1,30.77,WNW,291,0.0,1.0,78,0.00,-DZ BR,OVC VV000 1/4SM,0.00,0.0,WUHU216DAVISVP2,2013-12-07 09:38:00,
2013-12-07 03:43:00,-14.5,-19.3,30.78,WNW,291,0.0,0.0,78,0.00,-DZ BR,OVC VV000 1/4SM,0.00,0.0,WUHU216DAVISVP2,2013-12-07 09:43:00,
2013-12-07 03:48:00,-14.8,-19.6,30.78,WNW,291,0.0,0.0,78,0.00,-DZ BR,OVC VV000 1/4SM,0.00,0.0,WUHU216DAVISVP2,2013-12-07 09:48:00,
2013-12-07 03:53:00,-15.0,-19.8,30.78,WNW,291,0.0,0.0,78,0.00,-DZ BR,OVC VV000 1/4SM,0.00,0.0,WUHU216DAVISVP2,2013-12-07 09:53:00,
2013-12-07 03:58:00,-14.8,-19.6,30.78,WNW,291,0.0,0.0,78,0.00,-DZ BR,OVC VV000 1/4SM,0.00,0.0,WUHU216DAVISVP2,2013-12-07 09:58:00,
2013-12-07 04:03:00,-14.5,-19.3,30.78,WNW,291,0.0,0.0,78,0.00,-DZ BR,OVC VV000 1/4SM,0.00,0.0,WUHU216DAVISVP2,2013-12-07 10:03:00,
2013-12-07 04:08:00,-14.6,-19.4,30.78,WNW,291,0.0,0.0,78,0.00,-DZ BR,OVC VV000 1/4SM,0.00,0.0,WUHU216DAVISVP2,2013-12-07 10:08:00,
2013-12-07 04:13:00,-14.9,-19.7,30.78,WNW,291,0.0,0.0,78,0.00,-DZ BR,OVC VV000 1/4SM,0.00,0.0,WUHU216DAVISVP2,2013-12-07 10:13:00,
2013-12-07 04:18:00,-15.2,-20.1,30.78,WNW,291,0.0,1.0,78,0.00,-DZ BR,OVC VV000 1/4SM,0.00,0.0,WUHU216DAVISVP2,2013-12-07 10:18:00,
2013-12-07 04:23:00,-15.3,-20.1,30.78,WNW,291,0.0,1.0,78,0.00,-DZ BR,OVC VV000 1/4SM,0.00,0.0,WUHU216DAVISVP2,2013-12-07 10:23:00,
2013-12-07 04:28:00,-15.3,-20.1,30.78,WNW,291,0.0,0.0,78,0.00,-DZ BR,OVC VV000 1/4SM,0.00,0.0,WUHU216DAVISVP2,2013-12-07 10:28:00,
2013-12-07 04:33:00,-15.1,-19.9,30.78,WNW,294,0.0,2.0,78,0.00,-DZ BR,OVC VV000 1/4SM,0.00,0.0,WUHU216DAVISVP2,2013-12-07 10:33:00,
2013-12-07 04:38:00,-15.0,-19.6,30.78,WNW,300,0.0,2.0,79,0.00,-DZ BR,OVC VV000 1/4SM,0.00,0.0,WUHU216DAVISVP2,2013-12-07 10:38:00,
2013-12-07 04:43:00,-14.9,-19.7,30.78,WNW,296,0.0,1.0,78,0.00,-DZ BR,OVC VV000 1/4SM,0.00,0.0,WUHU216DAVISVP2,2013-12-07 10:43:00,
2013-12-07 04:48:00,-14.8,-19.4,30.78,NW,321,0.0,0.0,79,0.00,-DZ BR,OVC VV000 1/4SM,0.00,0.0,WUHU216DAVISVP2,2013-12-07 10:48:00,
2013-12-07 04:53:00,-14.7,-19.6,30.78,WNW,299,0.0,0.0,78,0.00,-DZ BR,OVC VV000 1/4SM,0.00,0.0,WUHU216DAVISVP2,2013-12-07 10:53:00,
2013-12-07 04:58:00,-14.7,-19.5,30.78,WNW,302,0.0,0.0,78,0.00,-DZ BR,OVC VV000 1/4SM,0.00,0.0,WUHU216DAVISVP2,2013-12-07 10:58:00,
2013-12-07 05:03:00,-14.6,-19.4,30.78,WNW,299,0.0,0.0,78,0.00,-DZ BR,OVC VV000 1/4SM,0.00,0.0,WUHU216DAVISVP2,2013-12-07 11:03:00,
2013-12-07 05:08:00,-14.6,-19.4,30.78,WNW,298,0.0,0.0,78,0.00,-DZ BR,OVC VV000 1/4SM,0.00,0.0,WUHU216DAVISVP2,2013-12-07 11:08:00,
2013-12-07 05:13:00,-14.7,-19.5,30.77,NNW,333,0.0,0.0,78,0.00,-DZ BR,OVC VV000 1/4SM,0.00,0.0,WUHU216DAVISVP2,2013-12-07 11:13:00,
2013-12-07 05:18:00,-14.7,-19.5,30.77,NW,304,1.0,4.0,78,0.00,-DZ BR,OVC VV000 1/4SM,0.00,0.0,WUHU216DAVISVP2,2013-12-07 11:18:00,
2013-12-07 05:23:00,-14.7,-19.5,30.77,West,267,0.0,4.0,78,0.00,-DZ BR,OVC VV000 1/4SM,0.00,0.0,WUHU216DAVISVP2,2013-12-07 11:23:00,
2013-12-07 05:28:00,-14.7,-19.5,30.78,WNW,288,0.0,4.0,78,0.00,-DZ BR,OVC VV000 1/4SM,0.00,0.0,WUHU216DAVISVP2,2013-12-07 11:28:00,
2013-12-07 05:33:00,-14.6,-19.4,30.78,WNW,302,0.0,6.0,78,0.00,-DZ BR,OVC VV000 1/4SM,0.00,0.0,WUHU216DAVISVP2,2013-12-07 11:33:00,
2013-12-07 05:38:00,-14.5,-19.3,30.77,NW,305,0.0,6.0,78,0.00,-DZ BR,OVC VV000 1/4SM,0.00,0.0,WUHU216DAVISVP2,2013-12-07 11:38:00,
2013-12-07 05:43:00,-14.4,-19.3,30.77,WNW,300,0.0,4.0,78,0.00,-DZ BR,OVC VV000 1/4SM,0.00,0.0,WUHU216DAVISVP2,2013-12-07 11:43:00,
2013-12-07 05:48:00,-14.6,-19.5,30.77,WNW,290,0.0,4.0,78,0.00,-DZ BR,OVC VV000 1/4SM,0.00,0.0,WUHU216DAVISVP2,2013-12-07 11:48:00,
2013-12-07 05:53:00,-14.6,-19.5,30.77,WSW,252,0.0,2.0,78,0.00,-DZ BR,OVC VV000 1/4SM,0.00,0.0,WUHU216DAVISVP2,2013-12-07 11:53:00,
2013-12-07 05:58:00,-14.7,-19.6,30.77,NW,318,0.0,2.0,78,0.00,-DZ BR,OVC VV000 1/4SM,0.00,0.0,WUHU216DAVISVP2,2013-12-07 11:58:00,
2013-12-07 06:03:00,-14.7,-19.5,30.77,NW,318,0.0,2.0,78,0.00,-DZ BR,OVC VV000 1/4SM,0.00,0.0,WUHU216DAVISVP2,2013-12-07 12:03:00,
2013-12-07 06:08:00,-14.7,-19.6,30.77,WSW,249,0.0,2.0,78,0.00,-DZ BR,OVC VV000 1/4SM,0.00,0.0,WUHU216DAVISVP2,2013-12-07 12:08:00,
2013-12-07 06:13:00,-14.8,-19.7,30.78,WSW,238,0.0,2.0,78,0.00,-DZ BR,OVC VV000 1/4SM,0.00,0.0,WUHU216DAVISVP2,2013-12-07 12:13:00,
2013-12-07 06:18:00,-15.1,-20.0,30.77,WSW,238,0.0,0.0,78,0.00,-DZ BR,OVC VV000 1/4SM,0.00,0.0,WUHU216DAVISVP2,2013-12-07 12:18:00,
2013-12-07 06:23:00,-15.5,-20.6,30.78,WSW,238,0.0,0.0,77,0.00,-DZ BR,OVC VV000 1/4SM,0.00,0.0,WUHU216DAVISVP2,2013-12-07 12:23:00,
2013-12-07 06:28:00,-15.8,-20.9,30.78,WSW,237,1.0,1.0,77,0.00,-DZ BR,OVC VV000 1/4SM,0.00,0.0,WUHU216DAVISVP2,2013-12-07 12:28:00,
2013-12-07 06:33:00,-15.6,-20.4,30.78,SW,226,1.0,1.0,78,0.00,-DZ BR,OVC VV000 1/4SM,0.00,0.0,WUHU216DAVISVP2,2013-12-07 12:33:00,
2013-12-07 06:38:00,-15.4,-20.2,30.79,SW,218,0.0,2.0,78,0.00,-DZ BR,OVC VV000 1/4SM,0.00,0.0,WUHU216DAVISVP2,2013-12-07 12:38:00,
2013-12-07 06:43:00,-15.3,-20.1,30.79,SW,218,0.0,2.0,78,0.00,-DZ BR,OVC VV000 1/4SM,0.00,0.0,WUHU216DAVISVP2,2013-12-07 12:43:00,
2013-12-07 06:48:00,-15.2,-20.0,30.80,SSW,199,0.0,2.0,78,0.00,-DZ BR,OVC VV000 1/4SM,0.00,0.0,WUHU216DAVISVP2,2013-12-07 12:48:00,
2013-12-07 06:53:00,-15.1,-19.9,30.79,SSW,199,0.0,2.0,78,0.00,-DZ BR,OVC VV000 1/4SM,0.00,0.0,WUHU216DAVISVP2,2013-12-07 12:53:00,
2013-12-07 06:58:00,-15.2,-20.0,30.79,SSW,199,0.0,1.0,78,0.00,-DZ BR,OVC VV000 1/4SM,0.00,0.0,WUHU216DAVISVP2,2013-12-07 12:58:00,
2013-12-07 07:03:00,-15.2,-20.0,30.80,SSW,199,0.0,0.0,78,0.00,-DZ BR,OVC VV000 1/4SM,0.00,0.0,WUHU216DAVISVP2,2013-12-07 13:03:00,
2013-12-07 07:08:00,-15.4,-20.2,30.80,SW,219,2.0,2.0,78,0.00,-DZ BR,OVC VV000 1/4SM,0.00,0.0,WUHU216DAVISVP2,2013-12-07 13:08:00,
2013-12-07 07:13:00,-15.2,-20.0,30.79,SSE,156,1.0,2.0,78,0.00,-DZ BR,OVC VV000 1/4SM,0.00,0.0,WUHU216DAVISVP2,2013-12-07 13:13:00,
2013-12-07 07:18:00,-15.1,-19.9,30.79,SSW,198,0.0,1.0,78,0.00,-DZ BR,OVC VV000 1/4SM,0.00,0.0,WUHU216DAVISVP2,2013-12-07 13:18:00,
2013-12-07 07:23:00,-14.9,-19.7,30.80,SW,235,0.0,2.0,78,0.00,-DZ BR,OVC VV000 1/4SM,0.00,0.0,WUHU216DAVISVP2,2013-12-07 13:23:00,
2013-12-07 07:28:00,-14.9,-19.8,30.80,SSW,201,1.0,4.0,78,0.00,-DZ BR,OVC VV000 1/4SM,0.00,0.0,WUHU216DAVISVP2,2013-12-07 13:28:00,
2013-12-07 07:33:00,-14.7,-19.5,30.80,South,177,0.0,4.0,78,0.00,-DZ BR,OVC VV000 1/4SM,0.00,0.0,WUHU216DAVISVP2,2013-12-07 13:33:00,
2013-12-07 07:38:00,-14.5,-19.3,30.80,South,170,1.0,4.0,78,0.00,-DZ BR,OVC VV000 1/4SM,0.00,0.0,WUHU216DAVISVP2,2013-12-07 13:38:00,
2013-12-07 07:43:00,-14.4,-19.2,30.80,WSW,254,0.0,7.0,78,0.00,-DZ BR,OVC VV000 1/4SM,0.00,0.0,WUHU216DAVISVP2,2013-12-07 13:43:00,
2013-12-07 07:48:00,-14.3,-19.1,30.80,SSW,205,2.0,7.0,78,0.00,-DZ BR,OVC VV000 1/4SM,0.00,7.0,WUHU216DAVISVP2,2013-12-07 13:48:00,
2013-12-07 07:53:00,-14.4,-19.2,30.80,SSW,202,0.0,5.0,78,0.00,-DZ BR,OVC VV000 1/4SM,0.00,9.0,WUHU216DAVISVP2,2013-12-07 13:53:00,
2013-12-07 07:58:00,-14.5,-19.3,30.80,SSW,199,2.0,6.0,78,0.00,-DZ BR,OVC VV000 1/4SM,0.00,12.0,WUHU216DAVISVP2,2013-12-07 13:58:00,
2013-12-07 08:03:00,-14.3,-19.1,30.79,SW,226,2.0,6.0,78,0.00,-DZ BR,OVC VV000 1/4SM,0.00,14.0,WUHU216DAVISVP2,2013-12-07 14:03:00,
2013-12-07 08:08:00,-14.3,-19.2,30.80,SSW,211,1.0,2.0,78,0.00,-DZ BR,OVC VV000 1/4SM,0.00,16.0,WUHU216DAVISVP2,2013-12-07 14:08:00,
2013-12-07 08:13:00,-14.4,-19.2,30.80,SSW,200,2.0,2.0,78,0.00,-DZ BR,OVC VV000 1/4SM,0.00,18.0,WUHU216DAVISVP2,2013-12-07 14:13:00,
2013-12-07 08:18:00,-14.8,-19.9,30.79,SSW,200,0.0,2.0,77,0.00,-DZ BR,OVC VV000 1/4SM,0.00,19.0,WUHU216DAVISVP2,2013-12-07 14:18:00,
2013-12-07 08:23:00,-15.2,-20.3,30.80,South,190,0.0,2.0,77,0.00,-DZ BR,OVC VV000 1/4SM,0.00,21.0,WUHU216DAVISVP2,2013-12-07 14:23:00,
2013-12-07 08:28:00,-15.1,-19.9,30.80,South,189,1.0,2.0,78,0.00,-DZ BR,OVC VV000 1/4SM,0.00,23.0,WUHU216DAVISVP2,2013-12-07 14:28:00,
2013-12-07 08:33:00,-15.1,-19.9,30.80,South,188,0.0,4.0,78,0.00,-DZ BR,OVC VV000 1/4SM,0.00,32.0,WUHU216DAVISVP2,2013-12-07 14:33:00,
2013-12-07 08:38:00,-15.1,-19.9,30.80,SW,219,0.0,4.0,78,0.00,-DZ BR,OVC VV000 1/4SM,0.00,58.0,WUHU216DAVISVP2,2013-12-07 14:38:00,
2013-12-07 08:43:00,-14.8,-19.6,30.80,SW,219,0.0,4.0,78,0.00,-DZ BR,OVC VV000 1/4SM,0.00,39.0,WUHU216DAVISVP2,2013-12-07 14:43:00,
2013-12-07 08:48:00,-14.3,-18.9,30.80,SW,229,0.0,3.0,79,0.00,-DZ BR,OVC VV000 1/4SM,0.00,47.0,WUHU216DAVISVP2,2013-12-07 14:48:00,
2013-12-07 08:53:00,-13.9,-18.5,30.80,WSW,252,0.0,4.0,79,0.00,-DZ BR,OVC VV000 1/4SM,0.00,53.0,WUHU216DAVISVP2,2013-12-07 14:53:00,
2013-12-07 08:58:00,-13.5,-18.1,30.80,WSW,252,0.0,4.0,79,0.00,-DZ BR,OVC VV000 1/4SM,0.00,83.0,WUHU216DAVISVP2,2013-12-07 14:58:00,
2013-12-07 09:03:00,-12.9,-17.6,30.80,SSW,210,0.0,2.0,79,0.00,-DZ BR,OVC VV000 1/4SM,0.00,58.0,WUHU216DAVISVP2,2013-12-07 15:03:00,
2013-12-07 09:08:00,-12.4,-17.0,30.80,WNW,292,1.0,5.0,79,0.00,-DZ BR,OVC VV000 1/4SM,0.00,86.0,WUHU216DAVISVP2,2013-12-07 15:08:00,
2013-12-07 09:13:00,-11.8,-16.5,30.81,WSW,242,0.0,5.0,79,0.00,-DZ BR,OVC VV000 1/4SM,0.00,121.0,WUHU216DAVISVP2,2013-12-07 15:13:00,
2013-12-07 09:18:00,-11.2,-15.9,30.80,West,260,0.0,4.0,79,0.00,-DZ BR,OVC VV000 1/4SM,0.00,128.0,WUHU216DAVISVP2,2013-12-07 15:18:00,
2013-12-07 09:23:00,-10.5,-15.2,30.81,SW,223,0.0,4.0,79,0.00,-DZ BR,OVC VV000 1/4SM,0.00,149.0,WUHU216DAVISVP2,2013-12-07 15:23:00,
2013-12-07 09:28:00,-10.0,-15.0,30.80,SW,224,1.0,6.0,78,0.00,-DZ BR,OVC VV000 1/4SM,0.00,216.0,WUHU216DAVISVP2,2013-12-07 15:28:00,
2013-12-07 09:33:00,-9.5,-14.5,30.80,WSW,246,0.0,6.0,78,0.00,-DZ BR,OVC VV000 1/4SM,0.00,225.0,WUHU216DAVISVP2,2013-12-07 15:33:00,
2013-12-07 09:38:00,-9.0,-14.2,30.80,SW,233,1.0,8.0,77,0.00,-DZ BR,OVC VV000 1/4SM,0.00,236.0,WUHU216DAVISVP2,2013-12-07 15:38:00,
2013-12-07 09:43:00,-8.9,-14.4,30.80,SW,216,2.0,8.0,76,0.00,-DZ BR,OVC VV000 1/4SM,0.00,244.0,WUHU216DAVISVP2,2013-12-07 15:43:00,
2013-12-07 09:48:00,-8.5,-14.0,30.80,West,277,1.0,8.0,76,0.00,-DZ BR,OVC VV000 1/4SM,0.00,251.0,WUHU216DAVISVP2,2013-12-07 15:48:00,
2013-12-07 09:52:00,-8.5,-14.0,30.81,WNW,291,0.0,7.0,76,0.00,-DZ BR,OVC VV000 1/4SM,0.00,257.0,WUHU216DAVISVP2,2013-12-07 15:52:00,
2013-12-07 09:53:00,-8.4,-13.9,30.80,SSW,205,1.0,7.0,76,0.00,-DZ BR,OVC VV000 1/4SM,0.00,258.0,WUHU216DAVISVP2,2013-12-07 15:53:00,
2013-12-07 09:58:00,-8.3,-14.1,30.81,WNW,290,1.0,7.0,75,0.00,-DZ BR,OVC VV000 1/4SM,0.00,265.0,WUHU216DAVISVP2,2013-12-07 15:58:00,
2013-12-07 10:00:00,-8.3,-14.1,30.81,SW,225,3.0,6.0,75,0.00,-DZ BR,OVC VV000 1/4SM,0.00,269.0,WUHU216DAVISVP2,2013-12-07 16:00:00,
2013-12-07 10:01:00,-8.2,-14.0,30.81,WSW,250,4.0,6.0,75,0.00,-DZ BR,OVC VV000 1/4SM,0.00,271.0,WUHU216DAVISVP2,2013-12-07 16:01:00,
2013-12-07 10:02:00,-8.2,-14.0,30.81,SSW,197,1.0,6.0,75,0.00,-DZ BR,OVC VV000 1/4SM,0.00,272.0,WUHU216DAVISVP2,2013-12-07 16:02:00,
2013-12-07 10:08:00,-7.9,-13.7,30.81,South,186,0.0,6.0,75,0.00,-DZ BR,OVC VV000 1/4SM,0.00,283.0,WUHU216DAVISVP2,2013-12-07 16:08:00,
2013-12-07 10:09:00,-7.7,-13.5,30.81,SW,232,5.0,6.0,75,0.00,-DZ BR,OVC VV000 1/4SM,0.00,283.0,WUHU216DAVISVP2,2013-12-07 16:09:00,
2013-12-07 10:11:00,-7.7,-13.5,30.81,South,184,0.0,6.0,75,0.00,-DZ BR,OVC VV000 1/4SM,0.00,281.0,WUHU216DAVISVP2,2013-12-07 16:11:00,
2013-12-07 10:12:00,-7.7,-13.5,30.81,WSW,253,5.0,7.0,75,0.00,-DZ BR,OVC VV000 1/4SM,0.00,285.0,WUHU216DAVISVP2,2013-12-07 16:12:00,
2013-12-07 10:16:00,-7.6,-13.4,30.81,WSW,238,1.0,7.0,75,0.00,-DZ BR,OVC VV000 1/4SM,0.00,292.0,WUHU216DAVISVP2,2013-12-07 16:16:00,
2013-12-07 10:17:00,-7.6,-13.6,30.81,West,265,0.0,7.0,74,0.00,-DZ BR,OVC VV000 1/4SM,0.00,294.0,WUHU216DAVISVP2,2013-12-07 16:17:00,
2013-12-07 10:20:00,-7.5,-13.5,30.81,SW,218,0.0,7.0,74,0.00,-DZ BR,OVC VV000 1/4SM,0.00,297.0,WUHU216DAVISVP2,2013-12-07 16:20:00,
2013-12-07 10:23:00,-7.4,-13.5,30.81,WSW,242,1.0,6.0,74,0.00,-DZ BR,OVC VV000 1/4SM,0.00,304.0,WUHU216DAVISVP2,2013-12-07 16:23:00,
2013-12-07 10:25:00,-7.3,-13.4,30.81,WSW,256,0.0,6.0,74,0.00,-DZ BR,OVC VV000 1/4SM,0.00,306.0,WUHU216DAVISVP2,2013-12-07 16:25:00,
2013-12-07 10:26:00,-7.3,-13.4,30.81,WSW,244,1.0,6.0,74,0.00,-DZ BR,OVC VV000 1/4SM,0.00,306.0,WUHU216DAVISVP2,2013-12-07 16:26:00,
2013-12-07 10:27:00,-7.2,-13.3,30.81,SW,219,0.0,6.0,74,0.00,-DZ BR,OVC VV000 1/4SM,0.00,308.0,WUHU216DAVISVP2,2013-12-07 16:27:00,
2013-12-07 10:33:00,-6.7,-12.8,30.81,SW,236,2.0,6.0,74,0.00,-DZ BR,OVC VV000 1/4SM,0.00,320.0,WUHU216DAVISVP2,2013-12-07 16:33:00,
2013-12-07 10:35:00,-6.6,-12.7,30.81,SSW,210,4.0,6.0,74,0.00,-DZ BR,OVC VV000 1/4SM,0.00,320.0,WUHU216DAVISVP2,2013-12-07 16:35:00,
2013-12-07 10:36:00,-6.6,-12.7,30.81,SW,232,0.0,6.0,74,0.00,-DZ BR,OVC VV000 1/4SM,0.00,322.0,WUHU216DAVISVP2,2013-12-07 16:36:00,
2013-12-07 10:46:00,-6.3,-12.7,30.81,SW,234,1.0,6.0,73,0.00,-DZ BR,OVC VV000 1/4SM,0.00,336.0,WUHU216DAVISVP2,2013-12-07 16:46:00,
2013-12-07 10:51:00,-6.1,-12.5,30.80,SSW,209,0.0,6.0,73,0.00,-DZ BR,OVC VV000 1/4SM,0.00,341.0,WUHU216DAVISVP2,2013-12-07 16:51:00,
2013-12-07 10:56:00,-6.0,-12.4,30.80,SW,218,1.0,6.0,73,0.00,-DZ BR,OVC VV000 1/4SM,0.00,345.0,WUHU216DAVISVP2,2013-12-07 16:56:00,
2013-12-07 11:01:00,-5.7,-12.3,30.80,SSE,161,2.0,5.0,72,0.00,-DZ BR,OVC VV000 1/4SM,0.00,355.0,WUHU216DAVISVP2,2013-12-07 17:01:00,
2013-12-07 11:06:00,-5.7,-12.3,30.80,South,172,0.0,6.0,72,0.00,-DZ BR,OVC VV000 1/4SM,0.00,362.0,WUHU216DAVISVP2,2013-12-07 17:06:00,
2013-12-07 11:11:00,-5.6,-12.2,30.80,SW,226,3.0,9.0,72,0.00,-DZ BR,OVC VV000 1/4SM,0.00,369.0,WUHU216DAVISVP2,2013-12-07 17:11:00,
2013-12-07 11:16:00,-5.3,-12.0,30.80,SSW,206,0.0,9.0,72,0.00,-DZ BR,OVC VV000 1/4SM,0.00,373.0,WUHU216DAVISVP2,2013-12-07 17:16:00,
2013-12-07 11:21:00,-4.8,-11.5,30.80,South,178,0.0,5.0,72,0.00,-DZ BR,OVC VV000 1/4SM,0.00,378.0,WUHU216DAVISVP2,2013-12-07 17:21:00,
2013-12-07 11:26:00,-4.3,-11.3,30.80,WSW,250,2.0,7.0,71,0.00,-DZ BR,OVC VV000 1/4SM,0.00,381.0,WUHU216DAVISVP2,2013-12-07 17:26:00,
2013-12-07 11:31:00,-4.0,-11.0,30.79,SW,232,0.0,7.0,71,0.00,-DZ BR,OVC VV000 1/4SM,0.00,385.0,WUHU216DAVISVP2,2013-12-07 17:31:00,
2013-12-07 11:36:00,-3.6,-10.6,30.79,WSW,242,5.0,7.0,71,0.00,-DZ BR,OVC VV000 1/4SM,0.00,388.0,WUHU216DAVISVP2,2013-12-07 17:36:00,
2013-12-07 11:41:00,-3.4,-10.7,30.79,West,265,0.0,7.0,70,0.00,-DZ BR,OVC VV000 1/4SM,0.00,388.0,WUHU216DAVISVP2,2013-12-07 17:41:00,
2013-12-07 11:46:00,-3.7,-11.0,30.79,West,259,0.0,9.0,70,0.00,-DZ BR,OVC VV000 1/4SM,0.00,392.0,WUHU216DAVISVP2,2013-12-07 17:46:00,
2013-12-07 11:51:00,-3.7,-11.0,30.79,West,275,1.0,9.0,70,0.00,-DZ BR,OVC VV000 1/4SM,0.00,396.0,WUHU216DAVISVP2,2013-12-07 17:51:00,
2013-12-07 11:56:00,-3.9,-11.5,30.78,SSW,205,5.0,8.0,69,0.00,-DZ BR,OVC VV000 1/4SM,0.00,396.0,WUHU216DAVISVP2,2013-12-07 17:56:00,
2013-12-07 12:01:00,-3.7,-11.3,30.79,SSW,211,0.0,11.0,69,0.00,-DZ BR,OVC VV000 1/4SM,0.00,396.0,WUHU216DAVISVP2,2013-12-07 18:01:00,
2013-12-07 12:06:00,-3.4,-10.7,30.79,SW,219,0.0,11.0,70,0.00,-DZ BR,OVC VV000 1/4SM,0.00,397.0,WUHU216DAVISVP2,2013-12-07 18:06:00,
2013-12-07 12:11:00,-3.2,-10.8,30.78,SW,227,3.0,9.0,69,0.00,-DZ BR,OVC VV000 1/4SM,0.00,399.0,WUHU216DAVISVP2,2013-12-07 18:11:00,
2013-12-07 12:16:00,-3.0,-10.6,30.78,SSW,211,0.0,8.0,69,0.00,-DZ BR,OVC VV000 1/4SM,0.00,397.0,WUHU216DAVISVP2,2013-12-07 18:16:00,
2013-12-07 12:21:00,-2.8,-10.4,30.78,WSW,254,2.0,11.0,69,0.00,-DZ BR,OVC VV000 1/4SM,0.00,397.0,WUHU216DAVISVP2,2013-12-07 18:21:00,
2013-12-07 12:26:00,-2.8,-10.4,30.78,WNW,286,0.0,11.0,69,0.00,-DZ BR,OVC VV000 1/4SM,0.00,392.0,WUHU216DAVISVP2,2013-12-07 18:26:00,
2013-12-07 12:31:00,-2.4,-10.1,30.78,WSW,246,6.0,7.0,69,0.00,-DZ BR,OVC VV000 1/4SM,0.00,392.0,WUHU216DAVISVP2,2013-12-07 18:31:00,
2013-12-07 12:36:00,-2.2,-9.9,30.78,WNW,288,4.0,10.0,69,0.00,-DZ BR,OVC VV000 1/4SM,0.00,390.0,WUHU216DAVISVP2,2013-12-07 18:36:00,
2013-12-07 12:41:00,-2.2,-9.9,30.77,NW,314,3.0,10.0,69,0.00,-DZ BR,OVC VV000 1/4SM,0.00,390.0,WUHU216DAVISVP2,2013-12-07 18:41:00,
2013-12-07 12:46:00,-1.8,-9.5,30.78,SW,236,5.0,11.0,69,0.00,-DZ BR,OVC VV000 1/4SM,0.00,388.0,WUHU216DAVISVP2,2013-12-07 18:46:00,
2013-12-07 12:51:00,-2.0,-9.9,30.78,West,275,12.0,12.0,68,0.00,-DZ BR,OVC VV000 1/4SM,0.00,385.0,WUHU216DAVISVP2,2013-12-07 18:51:00,
2013-12-07 12:56:00,-1.9,-9.8,30.78,SSW,212,0.0,12.0,68,0.00,-DZ BR,OVC VV000 1/4SM,0.00,380.0,WUHU216DAVISVP2,2013-12-07 18:56:00,
2013-12-07 13:01:00,-1.7,-9.6,30.78,SW,221,5.0,11.0,68,0.00,-DZ BR,OVC VV000 1/4SM,0.00,374.0,WUHU216DAVISVP2,2013-12-07 19:01:00,
2013-12-07 13:06:00,-1.6,-9.6,30.78,WNW,293,0.0,10.0,68,0.00,-DZ BR,OVC VV000 1/4SM,0.00,373.0,WUHU216DAVISVP2,2013-12-07 19:06:00,
2013-12-07 13:11:00,-1.5,-9.5,30.77,SW,229,6.0,10.0,68,0.00,-DZ BR,OVC VV000 1/4SM,0.00,369.0,WUHU216DAVISVP2,2013-12-07 19:11:00,
2013-12-07 13:16:00,-1.5,-9.5,30.77,South,169,6.0,10.0,68,0.00,-DZ BR,OVC VV000 1/4SM,0.00,364.0,WUHU216DAVISVP2,2013-12-07 19:16:00,
2013-12-07 13:21:00,-1.2,-9.2,30.77,West,271,2.0,11.0,68,0.00,-DZ BR,OVC VV000 1/4SM,0.00,360.0,WUHU216DAVISVP2,2013-12-07 19:21:00,
2013-12-07 13:26:00,-0.8,-8.5,30.77,NNW,329,0.0,11.0,69,0.00,-DZ BR,OVC VV000 1/4SM,0.00,355.0,WUHU216DAVISVP2,2013-12-07 19:26:00,
2013-12-07 13:31:00,-0.5,-8.5,30.77,WNW,296,0.0,9.0,68,0.00,-DZ BR,OVC VV000 1/4SM,0.00,350.0,WUHU216DAVISVP2,2013-12-07 19:31:00,
2013-12-07 13:36:00,-0.5,-8.5,30.77,West,272,5.0,9.0,68,0.00,-DZ BR,OVC VV000 1/4SM,0.00,343.0,WUHU216DAVISVP2,2013-12-07 19:36:00,
2013-12-07 13:41:00,-0.6,-8.6,30.77,WNW,286,7.0,9.0,68,0.00,-DZ BR,OVC VV000 1/4SM,0.00,336.0,WUHU216DAVISVP2,2013-12-07 19:41:00,
2013-12-07 13:46:00,-0.5,-8.5,30.77,West,265,0.0,9.0,68,0.00,-DZ BR,OVC VV000 1/4SM,0.00,330.0,WUHU216DAVISVP2,2013-12-07 19:46:00,
2013-12-07 13:51:00,-0.1,-7.8,30.76,West,271,7.0,7.0,69,0.00,-DZ BR,OVC VV000 1/4SM,0.00,320.0,WUHU216DAVISVP2,2013-12-07 19:51:00,
2013-12-07 13:56:00,0.0,-8.1,30.76,SW,232,6.0,8.0,68,0.00,-DZ BR,OVC VV000 1/4SM,0.00,311.0,WUHU216DAVISVP2,2013-12-07 19:56:00,
2013-12-07 14:01:00,-0.1,-8.4,30.76,WSW,244,2.0,9.0,67,0.00,-DZ BR,OVC VV000 1/4SM,0.00,304.0,WUHU216DAVISVP2,2013-12-07 20:01:00,
2013-12-07 14:06:00,0.1,-8.0,30.76,West,277,6.0,10.0,68,0.00,-DZ BR,OVC VV000 1/4SM,0.00,297.0,WUHU216DAVISVP2,2013-12-07 20:06:00,
2013-12-07 14:11:00,0.0,-8.0,30.76,SSW,198,2.0,11.0,68,0.00,-DZ BR,OVC VV000 1/4SM,0.00,288.0,WUHU216DAVISVP2,2013-12-07 20:11:00,
2013-12-07 14:16:00,-0.1,-8.5,30.76,West,264,1.0,11.0,67,0.00,-DZ BR,OVC VV000 1/4SM,0.00,279.0,WUHU216DAVISVP2,2013-12-07 20:16:00,
2013-12-07 14:21:00,-0.2,-8.5,30.75,West,273,1.0,9.0,67,0.00,-DZ BR,OVC VV000 1/4SM,0.00,272.0,WUHU216DAVISVP2,2013-12-07 20:21:00,
2013-12-07 14:26:00,-0.2,-8.5,30.75,WSW,256,4.0,9.0,67,0.00,-DZ BR,OVC VV000 1/4SM,0.00,264.0,WUHU216DAVISVP2,2013-12-07 20:26:00,
2013-12-07 14:31:00,0.0,-8.1,30.75,WNW,292,0.0,9.0,68,0.00,-DZ BR,OVC VV000 1/4SM,0.00,255.0,WUHU216DAVISVP2,2013-12-07 20:31:00,
2013-12-07 14:36:00,0.1,-7.9,30.75,NW,323,0.0,8.0,68,0.00,-DZ BR,OVC VV000 1/4SM,0.00,244.0,WUHU216DAVISVP2,2013-12-07 20:36:00,
2013-12-07 14:41:00,0.1,-7.9,30.74,WNW,293,0.0,8.0,68,0.00,-DZ BR,OVC VV000 1/4SM,0.00,236.0,WUHU216DAVISVP2,2013-12-07 20:41:00,
2013-12-07 14:46:00,0.1,-8.2,30.75,WSW,244,1.0,10.0,67,0.00,-DZ BR,OVC VV000 1/4SM,0.00,221.0,WUHU216DAVISVP2,2013-12-07 20:46:00,
2013-12-07 14:51:00,0.3,-8.0,30.74,SSW,203,0.0,10.0,67,0.00,-DZ BR,OVC VV000 1/4SM,0.00,211.0,WUHU216DAVISVP2,2013-12-07 20:51:00,
2013-12-07 14:56:00,0.4,-7.9,30.74,SW,215,0.0,7.0,67,0.00,-DZ BR,OVC VV000 1/4SM,0.00,202.0,WUHU216DAVISVP2,2013-12-07 20:56:00,
2013-12-07 15:01:00,0.3,-8.0,30.74,WSW,256,2.0,8.0,67,0.00,-DZ BR,OVC VV000 1/4SM,0.00,193.0,WUHU216DAVISVP2,2013-12-07 21:01:00,
2013-12-07 15:06:00,0.2,-8.1,30.74,WSW,249,0.0,8.0,67,0.00,-DZ BR,OVC VV000 1/4SM,0.00,181.0,WUHU216DAVISVP2,2013-12-07 21:06:00,
2013-12-07 15:11:00,0.2,-7.8,30.74,West,276,0.0,8.0,68,0.00,-DZ BR,OVC VV000 1/4SM,0.00,169.0,WUHU216DAVISVP2,2013-12-07 21:11:00,
2013-12-07 15:16:00,0.3,-8.0,30.75,West,268,2.0,6.0,67,0.00,-DZ BR,OVC VV000 1/4SM,0.00,158.0,WUHU216DAVISVP2,2013-12-07 21:16:00,
2013-12-07 15:21:00,0.1,-8.2,30.75,West,268,5.0,8.0,67,0.00,-DZ BR,OVC VV000 1/4SM,0.00,125.0,WUHU216DAVISVP2,2013-12-07 21:21:00,
2013-12-07 15:26:00,-0.2,-8.5,30.75,WSW,249,0.0,8.0,67,0.00,-DZ BR,OVC VV000 1/4SM,0.00,77.0,WUHU216DAVISVP2,2013-12-07 21:26:00,
2013-12-07 15:31:00,-0.5,-8.5,30.75,WNW,302,0.0,8.0,68,0.00,-DZ BR,OVC VV000 1/4SM,0.00,37.0,WUHU216DAVISVP2,2013-12-07 21:31:00,
2013-12-07 15:36:00,-0.9,-8.9,30.74,SW,225,1.0,8.0,68,0.00,-DZ BR,OVC VV000 1/4SM,0.00,37.0,WUHU216DAVISVP2,2013-12-07 21:36:00,
2013-12-07 15:41:00,-1.1,-8.8,30.75,WSW,257,0.0,8.0,69,0.00,-DZ BR,OVC VV000 1/4SM,0.00,33.0,WUHU216DAVISVP2,2013-12-07 21:41:00,
2013-12-07 15:46:00,-1.2,-8.9,30.74,SSE,168,1.0,5.0,69,0.00,-DZ BR,OVC VV000 1/4SM,0.00,30.0,WUHU216DAVISVP2,2013-12-07 21:46:00,
2013-12-07 15:51:00,-1.3,-9.0,30.74,WSW,257,0.0,5.0,69,0.00,-DZ BR,OVC VV000 1/4SM,0.00,28.0,WUHU216DAVISVP2,2013-12-07 21:51:00,
2013-12-07 15:56:00,-1.4,-9.1,30.74,SW,235,1.0,5.0,69,0.00,-DZ BR,OVC VV000 1/4SM,0.00,25.0,WUHU216DAVISVP2,2013-12-07 21:56:00,
2013-12-07 16:01:00,-1.7,-9.3,30.75,SW,227,0.0,5.0,69,0.00,-DZ BR,OVC VV000 1/4SM,0.00,21.0,WUHU216DAVISVP2,2013-12-07 22:01:00,
2013-12-07 16:06:00,-1.8,-9.4,30.74,SW,226,0.0,5.0,69,0.00,-DZ BR,OVC VV000 1/4SM,0.00,16.0,WUHU216DAVISVP2,2013-12-07 22:06:00,
2013-12-07 16:11:00,-2.0,-9.7,30.74,WNW,292,0.0,5.0,69,0.00,-DZ BR,OVC VV000 1/4SM,0.00,12.0,WUHU216DAVISVP2,2013-12-07 22:11:00,
2013-12-07 16:16:00,-2.3,-9.7,30.74,WNW,286,0.0,3.0,70,0.00,-DZ BR,OVC VV000 1/4SM,0.00,11.0,WUHU216DAVISVP2,2013-12-07 22:16:00,
2013-12-07 16:21:00,-2.6,-9.9,30.74,WNW,286,0.0,2.0,70,0.00,-DZ BR,OVC VV000 1/4SM,0.00,7.0,WUHU216DAVISVP2,2013-12-07 22:21:00,
2013-12-07 16:26:00,-2.8,-10.1,30.73,WSW,250,1.0,4.0,70,0.00,-DZ BR,OVC VV000 1/4SM,0.00,5.0,WUHU216DAVISVP2,2013-12-07 22:26:00,
2013-12-07 16:31:00,-2.9,-10.2,30.73,WSW,252,0.0,5.0,70,0.00,-DZ BR,OVC VV000 1/4SM,0.00,0.0,WUHU216DAVISVP2,2013-12-07 22:31:00,
2013-12-07 16:36:00,-3.0,-10.0,30.73,WSW,252,0.0,5.0,71,0.00,-DZ BR,OVC VV000 1/4SM,0.00,0.0,WUHU216DAVISVP2,2013-12-07 22:36:00,
2013-12-07 16:41:00,-3.4,-10.4,30.73,WSW,252,0.0,0.0,71,0.00,-DZ BR,OVC VV000 1/4SM,0.00,0.0,WUHU216DAVISVP2,2013-12-07 22:41:00,
2013-12-07 16:46:00,-3.8,-10.8,30.74,WSW,252,0.0,0.0,71,0.00,-DZ BR,OVC VV000 1/4SM,0.00,0.0,WUHU216DAVISVP2,2013-12-07 22:46:00,
2013-12-07 16:51:00,-4.2,-10.9,30.74,WSW,252,0.0,0.0,72,0.00,-DZ BR,OVC VV000 1/4SM,0.00,0.0,WUHU216DAVISVP2,2013-12-07 22:51:00,
2013-12-07 16:56:00,-4.5,-11.2,30.74,WSW,252,0.0,0.0,72,0.00,-DZ BR,OVC VV000 1/4SM,0.00,0.0,WUHU216DAVISVP2,2013-12-07 22:56:00,
2013-12-07 17:01:00,-4.8,-11.5,30.73,WSW,252,0.0,0.0,72,0.00,-DZ BR,OVC VV000 1/4SM,0.00,0.0,WUHU216DAVISVP2,2013-12-07 23:01:00,
2013-12-07 17:06:00,-5.1,-11.5,30.73,WSW,252,0.0,0.0,73,0.00,-DZ BR,OVC VV000 1/4SM,0.00,0.0,WUHU216DAVISVP2,2013-12-07 23:06:00,
2013-12-07 17:11:00,-5.5,-11.9,30.73,WSW,252,0.0,0.0,73,0.00,-DZ BR,OVC VV000 1/4SM,0.00,0.0,WUHU216DAVISVP2,2013-12-07 23:11:00,
2013-12-07 17:16:00,-5.7,-12.1,30.73,WSW,252,0.0,0.0,73,0.00,-DZ BR,OVC VV000 1/4SM,0.00,0.0,WUHU216DAVISVP2,2013-12-07 23:16:00,
2013-12-07 17:21:00,-6.1,-12.2,30.73,WSW,252,0.0,0.0,74,0.00,-DZ BR,OVC VV000 1/4SM,0.00,0.0,WUHU216DAVISVP2,2013-12-07 23:21:00,
2013-12-07 17:26:00,-6.7,-13.0,30.73,WSW,252,0.0,0.0,73,0.00,-DZ BR,OVC VV000 1/4SM,0.00,0.0,WUHU216DAVISVP2,2013-12-07 23:26:00,
2013-12-07 17:31:00,-7.0,-13.1,30.73,WSW,252,0.0,0.0,74,0.00,-DZ BR,OVC VV000 1/4SM,0.00,0.0,WUHU216DAVISVP2,2013-12-07 23:31:00,
2013-12-07 17:36:00,-7.1,-12.9,30.73,WSW,252,0.0,0.0,75,0.00,-DZ BR,OVC VV000 1/4SM,0.00,0.0,WUHU216DAVISVP2,2013-12-07 23:36:00,
2013-12-07 17:41:00,-7.1,-12.9,30.73,WSW,252,0.0,0.0,75,0.00,-DZ BR,OVC VV000 1/4SM,0.00,0.0,WUHU216DAVISVP2,2013-12-07 23:41:00,
2013-12-07 17:46:00,-6.9,-12.5,30.73,WSW,252,0.0,0.0,76,0.00,-DZ BR,OVC VV000 1/4SM,0.00,0.0,WUHU216DAVISVP2,2013-12-07 23:46:00,
2013-12-07 17:51:00,-7.0,-12.5,30.73,WSW,252,0.0,0.0,76,0.00,-DZ BR,OVC VV000 1/4SM,0.00,0.0,WUHU216DAVISVP2,2013-12-07 23:51:00,
2013-12-07 17:56:00,-7.0,-12.5,30.73,WSW,252,0.0,0.0,76,0.00,-DZ BR,OVC VV000 1/4SM,0.00,0.0,WUHU216DAVISVP2,2013-12-07 23:56:00,
2013-12-07 18:01:00,-7.3,-12.8,30.73,WSW,252,0.0,0.0,76,0.00,-DZ BR,OVC VV000 1/4SM,0.00,0.0,WUHU216DAVISVP2,2013-12-08 00:01:00,
2013-12-07 18:06:00,-7.5,-13.0,30.73,WSW,252,0.0,0.0,76,0.00,-DZ BR,OVC VV000 1/4SM,0.00,0.0,WUHU216DAVISVP2,2013-12-08 00:06:00,
2013-12-07 18:11:00,-7.7,-13.2,30.73,WSW,252,0.0,0.0,76,0.00,-DZ BR,OVC VV000 1/4SM,0.00,0.0,WUHU216DAVISVP2,2013-12-08 00:11:00,
2013-12-07 18:16:00,-7.6,-12.9,30.72,WSW,252,0.0,0.0,77,0.00,-DZ BR,OVC VV000 1/4SM,0.00,0.0,WUHU216DAVISVP2,2013-12-08 00:16:00,
2013-12-07 18:21:00,-7.5,-12.8,30.72,WSW,252,0.0,0.0,77,0.00,-DZ BR,OVC VV000 1/4SM,0.00,0.0,WUHU216DAVISVP2,2013-12-08 00:21:00,
2013-12-07 18:26:00,-7.7,-13.0,30.72,WSW,252,0.0,0.0,77,0.00,-DZ BR,OVC VV000 1/4SM,0.00,0.0,WUHU216DAVISVP2,2013-12-08 00:26:00,
2013-12-07 18:31:00,-7.8,-13.1,30.72,WSW,252,0.0,0.0,77,0.00,-DZ BR,OVC VV000 1/4SM,0.00,0.0,WUHU216DAVISVP2,2013-12-08 00:31:00,
2013-12-07 18:36:00,-8.1,-13.4,30.72,WSW,252,0.0,0.0,77,0.00,-DZ BR,OVC VV000 1/4SM,0.00,0.0,WUHU216DAVISVP2,2013-12-08 00:36:00,
2013-12-07 18:41:00,-8.4,-13.6,30.72,WSW,252,0.0,0.0,77,0.00,-DZ BR,OVC VV000 1/4SM,0.00,0.0,WUHU216DAVISVP2,2013-12-08 00:41:00,
2013-12-07 18:46:00,-8.8,-14.0,30.72,WSW,252,0.0,0.0,77,0.00,-DZ BR,OVC VV000 1/4SM,0.00,0.0,WUHU216DAVISVP2,2013-12-08 00:46:00,
2013-12-07 18:51:00,-9.1,-14.4,30.72,WSW,252,0.0,0.0,77,0.00,-DZ BR,OVC VV000 1/4SM,0.00,0.0,WUHU216DAVISVP2,2013-12-08 00:51:00,
2013-12-07 18:56:00,-8.7,-13.7,30.72,WSW,252,0.0,0.0,78,0.00,-DZ BR,OVC VV000 1/4SM,0.00,0.0,WUHU216DAVISVP2,2013-12-08 00:56:00,
2013-12-07 19:01:00,-8.9,-13.9,30.72,WSW,252,0.0,0.0,78,0.00,-DZ BR,OVC VV000 1/4SM,0.00,0.0,WUHU216DAVISVP2,2013-12-08 01:01:00,
2013-12-07 19:06:00,-9.3,-14.3,30.72,WSW,252,0.0,0.0,78,0.00,-DZ BR,OVC VV000 1/4SM,0.00,0.0,WUHU216DAVISVP2,2013-12-08 01:06:00,
2013-12-07 19:11:00,-9.3,-14.3,30.72,WSW,252,0.0,0.0,78,0.00,-DZ BR,OVC VV000 1/4SM,0.00,0.0,WUHU216DAVISVP2,2013-12-08 01:11:00,
2013-12-07 19:16:00,-9.5,-14.5,30.72,WSW,252,0.0,0.0,78,0.00,-DZ BR,OVC VV000 1/4SM,0.00,0.0,WUHU216DAVISVP2,2013-12-08 01:16:00,
2013-12-07 19:21:00,-9.3,-14.0,30.72,WSW,252,0.0,0.0,79,0.00,-DZ BR,OVC VV000 1/4SM,0.00,0.0,WUHU216DAVISVP2,2013-12-08 01:21:00,
2013-12-07 19:26:00,-9.7,-14.7,30.72,WSW,252,0.0,0.0,78,0.00,-DZ BR,OVC VV000 1/4SM,0.00,0.0,WUHU216DAVISVP2,2013-12-08 01:26:00,
2013-12-07 19:31:00,-10.5,-15.7,30.72,WSW,252,0.0,0.0,77,0.00,-DZ BR,OVC VV000 1/4SM,0.00,0.0,WUHU216DAVISVP2,2013-12-08 01:31:00,
2013-12-07 19:36:00,-11.3,-16.5,30.71,WSW,252,0.0,0.0,77,0.00,-DZ BR,OVC VV000 1/4SM,0.00,0.0,WUHU216DAVISVP2,2013-12-08 01:36:00,
2013-12-07 19:41:00,-11.8,-17.0,30.71,WSW,252,0.0,0.0,77,0.00,-DZ BR,OVC VV000 1/4SM,0.00,0.0,WUHU216DAVISVP2,2013-12-08 01:41:00,
2013-12-07 19:46:00,-12.1,-17.0,30.72,WSW,252,0.0,0.0,78,0.00,-DZ BR,OVC VV000 1/4SM,0.00,0.0,WUHU216DAVISVP2,2013-12-08 01:46:00,
2013-12-07 19:51:00,-12.1,-16.8,30.71,WSW,252,0.0,0.0,79,0.00,-DZ BR,OVC VV000 1/4SM,0.00,0.0,WUHU216DAVISVP2,2013-12-08 01:51:00,
2013-12-07 19:56:00,-12.1,-16.8,30.71,WSW,252,0.0,0.0,79,0.00,-DZ BR,OVC VV000 1/4SM,0.00,0.0,WUHU216DAVISVP2,2013-12-08 01:56:00,
2013-12-07 20:01:00,-12.1,-16.8,30.71,WSW,252,0.0,0.0,79,0.00,-DZ BR,OVC VV000 1/4SM,0.00,0.0,WUHU216DAVISVP2,2013-12-08 02:01:00,
2013-12-07 20:06:00,-11.8,-16.5,30.71,WSW,252,0.0,0.0,79,0.00,-DZ BR,OVC VV000 1/4SM,0.00,0.0,WUHU216DAVISVP2,2013-12-08 02:06:00,
2013-12-07 20:11:00,-12.1,-16.8,30.71,WSW,252,0.0,0.0,79,0.00,-DZ BR,OVC VV000 1/4SM,0.00,0.0,WUHU216DAVISVP2,2013-12-08 02:11:00,
2013-12-07 20:16:00,-12.4,-17.0,30.71,WSW,252,0.0,0.0,79,0.00,-DZ BR,OVC VV000 1/4SM,0.00,0.0,WUHU216DAVISVP2,2013-12-08 02:16:00,
2013-12-07 20:21:00,-12.2,-16.9,30.71,WSW,252,0.0,0.0,79,0.00,-DZ BR,OVC VV000 1/4SM,0.00,0.0,WUHU216DAVISVP2,2013-12-08 02:21:00,
2013-12-07 20:26:00,-12.1,-16.8,30.71,WSW,252,0.0,0.0,79,0.00,-DZ BR,OVC VV000 1/4SM,0.00,0.0,WUHU216DAVISVP2,2013-12-08 02:26:00,
2013-12-07 20:31:00,-12.2,-16.9,30.71,WSW,252,0.0,0.0,79,0.00,-DZ BR,OVC VV000 1/4SM,0.00,0.0,WUHU216DAVISVP2,2013-12-08 02:31:00,
2013-12-07 20:36:00,-12.4,-17.0,30.71,WSW,252,0.0,0.0,79,0.00,-DZ BR,OVC VV000 1/4SM,0.00,0.0,WUHU216DAVISVP2,2013-12-08 02:36:00,
2013-12-07 20:41:00,-12.6,-17.2,30.71,WSW,252,0.0,0.0,79,0.00,-DZ BR,OVC VV000 1/4SM,0.00,0.0,WUHU216DAVISVP2,2013-12-08 02:41:00,
2013-12-07 20:46:00,-12.5,-17.1,30.71,WSW,252,0.0,0.0,79,0.00,-DZ BR,OVC VV000 1/4SM,0.00,0.0,WUHU216DAVISVP2,2013-12-08 02:46:00,
2013-12-07 20:51:00,-12.8,-17.4,30.70,WSW,252,0.0,0.0,79,0.00,-DZ BR,OVC VV000 1/4SM,0.00,0.0,WUHU216DAVISVP2,2013-12-08 02:51:00,
2013-12-07 20:56:00,-13.5,-18.4,30.70,WSW,252,0.0,0.0,78,0.00,-DZ BR,OVC VV000 1/4SM,0.00,0.0,WUHU216DAVISVP2,2013-12-08 02:56:00,
2013-12-07 21:01:00,-13.5,-18.1,30.70,WSW,252,0.0,0.0,79,0.00,-DZ BR,OVC VV000 1/4SM,0.00,0.0,WUHU216DAVISVP2,2013-12-08 03:01:00,
2013-12-07 21:06:00,-13.1,-17.8,30.70,SE,145,0.0,0.0,79,0.00,-DZ BR,OVC VV000 1/4SM,0.00,0.0,WUHU216DAVISVP2,2013-12-08 03:06:00,
2013-12-07 21:11:00,-13.8,-18.7,30.70,SE,145,0.0,2.0,78,0.00,-DZ BR,OVC VV000 1/4SM,0.00,0.0,WUHU216DAVISVP2,2013-12-08 03:11:00,
2013-12-07 21:16:00,-14.3,-19.1,30.70,SE,145,0.0,2.0,78,0.00,-DZ BR,OVC VV000 1/4SM,0.00,0.0,WUHU216DAVISVP2,2013-12-08 03:16:00,
2013-12-07 21:21:00,-14.3,-18.9,30.69,SE,145,0.0,0.0,79,0.00,-DZ BR,OVC VV000 1/4SM,0.00,0.0,WUHU216DAVISVP2,2013-12-08 03:21:00,
2013-12-07 21:26:00,-14.2,-18.8,30.69,SE,145,0.0,0.0,79,0.00,-DZ BR,OVC VV000 1/4SM,0.00,0.0,WUHU216DAVISVP2,2013-12-08 03:26:00,
2013-12-07 21:31:00,-14.2,-18.8,30.69,SE,145,0.0,0.0,79,0.00,-DZ BR,OVC VV000 1/4SM,0.00,0.0,WUHU216DAVISVP2,2013-12-08 03:31:00,
2013-12-07 21:36:00,-14.3,-18.9,30.69,SE,145,0.0,0.0,79,0.00,-DZ BR,OVC VV000 1/4SM,0.00,0.0,WUHU216DAVISVP2,2013-12-08 03:36:00,
2013-12-07 21:41:00,-14.0,-18.6,30.69,SE,145,0.0,0.0,79,0.00,-DZ BR,OVC VV000 1/4SM,0.00,0.0,WUHU216DAVISVP2,2013-12-08 03:41:00,
2013-12-07 21:46:00,-13.6,-18.2,30.69,SE,145,0.0,0.0,79,0.00,-DZ BR,OVC VV000 1/4SM,0.00,0.0,WUHU216DAVISVP2,2013-12-08 03:46:00,
2013-12-07 21:51:00,-13.3,-17.7,30.69,SE,145,0.0,0.0,80,0.00,-DZ BR,OVC VV000 1/4SM,0.00,0.0,WUHU216DAVISVP2,2013-12-08 03:51:00,
2013-12-07 21:56:00,-13.3,-17.9,30.70,SE,145,0.0,0.0,79,0.00,-DZ BR,OVC VV000 1/4SM,0.00,0.0,WUHU216DAVISVP2,2013-12-08 03:56:00,
2013-12-07 22:01:00,-13.6,-18.2,30.70,SE,145,0.0,0.0,79,0.00,-DZ BR,OVC VV000 1/4SM,0.00,0.0,WUHU216DAVISVP2,2013-12-08 04:01:00,
2013-12-07 22:06:00,-13.6,-18.2,30.70,SSE,159,0.0,0.0,79,0.00,-DZ BR,OVC VV000 1/4SM,0.00,0.0,WUHU216DAVISVP2,2013-12-08 04:06:00,
2013-12-07 22:11:00,-13.6,-18.2,30.69,SSE,159,0.0,0.0,79,0.00,-DZ BR,OVC VV000 1/4SM,0.00,0.0,WUHU216DAVISVP2,2013-12-08 04:11:00,
2013-12-07 22:16:00,-13.6,-18.2,30.69,SSW,199,0.0,0.0,79,0.00,-DZ BR,OVC VV000 1/4SM,0.00,0.0,WUHU216DAVISVP2,2013-12-08 04:16:00,
2013-12-07 22:21:00,-13.1,-17.7,30.69,SSW,199,0.0,0.0,79,0.00,-DZ BR,OVC VV000 1/4SM,0.00,0.0,WUHU216DAVISVP2,2013-12-08 04:21:00,
2013-12-07 22:26:00,-13.2,-17.8,30.69,SSW,200,0.0,0.0,79,0.00,-DZ BR,OVC VV000 1/4SM,0.00,0.0,WUHU216DAVISVP2,2013-12-08 04:26:00,
2013-12-07 22:31:00,-12.9,-17.5,30.69,SSW,200,0.0,0.0,79,0.00,-DZ BR,OVC VV000 1/4SM,0.00,0.0,WUHU216DAVISVP2,2013-12-08 04:31:00,
2013-12-07 22:36:00,-12.8,-17.4,30.68,SSW,200,0.0,0.0,79,0.00,-DZ BR,OVC VV000 1/4SM,0.00,0.0,WUHU216DAVISVP2,2013-12-08 04:36:00,
2013-12-07 22:41:00,-13.2,-17.8,30.68,SSW,199,0.0,0.0,79,0.00,-DZ BR,OVC VV000 1/4SM,0.00,0.0,WUHU216DAVISVP2,2013-12-08 04:41:00,
2013-12-07 22:46:00,-13.9,-18.8,30.69,SSW,200,0.0,0.0,78,0.00,-DZ BR,OVC VV000 1/4SM,0.00,0.0,WUHU216DAVISVP2,2013-12-08 04:46:00,
2013-12-07 22:51:00,-14.3,-19.1,30.68,SSE,160,0.0,0.0,78,0.00,-DZ BR,OVC VV000 1/4SM,0.00,0.0,WUHU216DAVISVP2,2013-12-08 04:51:00,
2013-12-07 22:56:00,-14.2,-18.8,30.68,SSE,160,0.0,0.0,79,0.00,-DZ BR,OVC VV000 1/4SM,0.00,0.0,WUHU216DAVISVP2,2013-12-08 04:56:00,
2013-12-07 23:01:00,-13.8,-18.4,30.68,SSE,160,0.0,0.0,79,0.00,-DZ BR,OVC VV000 1/4SM,0.00,0.0,WUHU216DAVISVP2,2013-12-08 05:01:00,
2013-12-07 23:06:00,-13.1,-17.8,30.67,SSE,160,0.0,0.0,79,0.00,-DZ BR,OVC VV000 1/4SM,0.00,0.0,WUHU216DAVISVP2,2013-12-08 05:06:00,
2013-12-07 23:11:00,-13.0,-17.6,30.67,SSE,160,0.0,0.0,79,0.00,-DZ BR,OVC VV000 1/4SM,0.00,0.0,WUHU216DAVISVP2,2013-12-08 05:11:00,
2013-12-07 23:16:00,-13.6,-18.5,30.68,SSE,160,0.0,0.0,78,0.00,-DZ BR,OVC VV000 1/4SM,0.00,0.0,WUHU216DAVISVP2,2013-12-08 05:16:00,
2013-12-07 23:21:00,-14.3,-19.1,30.68,SSE,160,0.0,0.0,78,0.00,-DZ BR,OVC VV000 1/4SM,0.00,0.0,WUHU216DAVISVP2,2013-12-08 05:21:00,
2013-12-07 23:26:00,-13.2,-17.9,30.68,SSE,160,0.0,0.0,79,0.00,-DZ BR,OVC VV000 1/4SM,0.00,0.0,WUHU216DAVISVP2,2013-12-08 05:26:00,
2013-12-07 23:31:00,-12.7,-17.3,30.67,SSE,160,0.0,0.0,79,0.00,-DZ BR,OVC VV000 1/4SM,0.00,0.0,WUHU216DAVISVP2,2013-12-08 05:31:00,
2013-12-07 23:36:00,-13.5,-18.6,30.68,NE,38,0.0,4.0,77,0.00,-DZ BR,OVC VV000 1/4SM,0.00,0.0,WUHU216DAVISVP2,2013-12-08 05:36:00,
2013-12-07 23:41:00,-14.8,-19.9,30.67,NE,38,0.0,4.0,77,0.00,-DZ BR,OVC VV000 1/4SM,0.00,0.0,WUHU216DAVISVP2,2013-12-08 05:41:00,
2013-12-07 23:46:00,-15.6,-20.6,30.68,NE,38,0.0,3.0,77,0.00,-DZ BR,OVC VV000 1/4SM,0.00,0.0,WUHU216DAVISVP2,2013-12-08 05:46:00,
2013-12-07 23:51:00,-16.2,-21.2,30.68,NE,38,0.0,0.0,77,0.00,-DZ BR,OVC VV000 1/4SM,0.00,0.0,WUHU216DAVISVP2,2013-12-08 05:51:00,
2013-12-07 23:56:00,-16.1,-20.9,30.68,NE,38,0.0,0.0,78,0.00,-DZ BR,OVC VV000 1/4SM,0.00,0.0,WUHU216DAVISVP2,2013-12-08 05:56:00,